Weather History for Naples, FL

Change the Weather History Date:

Monday, May 12, 2014

  Actual Average Record
Temperature  
Mean Temperature 81 °F 78 °F  
Max Temperature 93 °F 88 °F 93 °F (2011)
Min Temperature 68 °F 68 °F 58 °F (1982)
Degree Days  
Heating Degree Days 0 0  
Month to date heating degree days 0 0  
Since 1 July heating degree days 149 260  
Cooling Degree Days 16 13  
Month to date cooling degree days 175 140  
Year to date cooling degree days 909 760  
Growing Degree Days 30 (Base 50)    
Moisture  
Dew Point 65 °F    
Average Humidity 63    
Maximum Humidity 90    
Minimum Humidity 36    
Precipitation  
Precipitation 0.00 in 0.07 in 2.69 in (1977)
Month to date precipitation 0.10 0.96  
Year to date precipitation 6.96 9.65  
Snow  
Snow 0.00 in - - ()
Month to date snowfall 0.0  
Since 1 July snowfall 0.0  
Snow Depth 0.00 in    
Sea Level Pressure  
Sea Level Pressure 30.05 in    
Wind  
Wind Speed 11 mph (ENE)    
Max Wind Speed 18 mph    
Max Gust Speed 27 mph    
Visibility 10 miles    
Events      
T = Trace of Precipitation, MM = Missing Value Source: NWS Daily Summary

Daily Weather History Graph

Daily Weather History Graph

Search for Another Location

Airport:

Trip Planner

Search our weather history database for the weather conditions in past years. The results will help you decide how hot, cold, wet, or windy it might be!

Date:

Astronomy

May. 12, 2014 Rise Set
Actual Time 6:42 AM EDT 8:04 PM EDT
Civil Twilight 6:17 AM EDT 8:29 PM EDT
Nautical Twilight 5:47 AM EDT 8:59 PM EDT
Astronomical Twilight 5:17 AM EDT 9:30 PM EDT
Moon 6:12 PM EDT (5/12) 5:06 AM EDT (5/12)
Length of Visible Light 14h 12m
Length of Day
13h 22m
Waxing Gibbous, 95% of the Moon is Illuminated
May 12
Waxing Gibbous
May 14
Full
May 21
Last Quarter
May 28
New
Jun 5
First Quarter

Hourly Weather History & Observations

Time (EDT) Temp. Heat Index Dew Point Humidity Pressure Visibility Wind Dir Wind Speed Gust Speed Precip Events Conditions
12:53 AM 75.0 °F - 64.0 °F 69% 30.09 in 10.0 mi East 8.1 mph - N/A   Clear
1:53 AM 73.9 °F - 64.9 °F 73% 30.07 in 10.0 mi ENE 8.1 mph - N/A   Clear
2:53 AM 72.0 °F - 64.9 °F 78% 30.06 in 10.0 mi NE 5.8 mph - N/A   Clear
3:53 AM 71.1 °F - 64.9 °F 81% 30.06 in 10.0 mi ENE 6.9 mph - N/A   Clear
4:53 AM 71.1 °F - 66.0 °F 84% 30.05 in 10.0 mi NE 5.8 mph - N/A   Clear
5:53 AM 70.0 °F - 66.0 °F 87% 30.05 in 10.0 mi NE 4.6 mph - N/A   Clear
6:53 AM 68.0 °F - 64.9 °F 90% 30.06 in 8.0 mi ENE 5.8 mph - N/A   Clear
7:53 AM 72.0 °F - 66.9 °F 84% 30.08 in 8.0 mi ENE 5.8 mph - N/A   Clear
8:53 AM 79.0 °F - 69.1 °F 72% 30.09 in 10.0 mi East 9.2 mph - N/A   Clear
10:53 AM 84.9 °F 88.2 °F 68.0 °F 57% 30.10 in 10.0 mi East 12.7 mph - N/A   Partly Cloudy
11:53 AM 88.0 °F 91.4 °F 68.0 °F 51% 30.10 in 10.0 mi East 11.5 mph 18.4 mph N/A   Scattered Clouds
12:53 PM 87.1 °F 89.9 °F 66.9 °F 51% 30.08 in 10.0 mi ENE 15.0 mph 21.9 mph N/A   Mostly Cloudy
1:53 PM 87.1 °F 89.9 °F 66.9 °F 51% 30.06 in 10.0 mi ENE 12.7 mph - N/A   Mostly Cloudy
2:53 PM 90.0 °F 90.6 °F 63.0 °F 40% 30.04 in 10.0 mi ESE 8.1 mph - N/A   Mostly Cloudy
3:53 PM 91.9 °F 93.3 °F 64.0 °F 39% 30.02 in 10.0 mi East 11.5 mph - N/A   Scattered Clouds
4:53 PM 90.0 °F 90.0 °F 61.0 °F 38% 30.01 in 10.0 mi East 12.7 mph 20.7 mph N/A   Mostly Cloudy
5:53 PM 91.0 °F 90.9 °F 61.0 °F 36% 30.01 in 10.0 mi East 12.7 mph - N/A   Scattered Clouds
6:53 PM 87.1 °F 87.8 °F 63.0 °F 44% 30.02 in 10.0 mi East 12.7 mph - N/A   Partly Cloudy
7:53 PM 84.0 °F 85.4 °F 64.0 °F 51% 30.02 in 10.0 mi East 15.0 mph - N/A   Clear
8:53 PM 82.0 °F 84.1 °F 66.0 °F 58% 30.04 in 10.0 mi East 12.7 mph - N/A   Clear
9:53 PM 80.1 °F 82.7 °F 68.0 °F 67% 30.05 in 10.0 mi East 15.0 mph - N/A   Clear
11:53 PM 77.0 °F - 69.1 °F 76% 30.05 in 10.0 mi ENE 12.7 mph - N/A   Clear